Pittsfield, MA

6:13 PM EST on November 11, 2019 (GMT -0500)
Pittsfield Municipal

Weather History for KPSF - October, 2019

Change the Weather History Date:

Tuesday, October 22, 2019

  Actual Average Record
Temperature  
Mean Temperature 50 °F 46 °F  
Max Temperature 55 °F 56 °F 78 °F (2007)
Min Temperature 43 °F 35 °F 19 °F (1948)
Degree Days  
Heating Degree Days 16 19  
Month to date heating degree days 310 355  
Since 1 July heating degree days 492 647  
Cooling Degree Days 0 0  
Month to date cooling degree days 0 0  
Year to date cooling degree days 416 289  
Moisture  
Dew Point 45 °F    
Average Humidity 80    
Maximum Humidity 96    
Minimum Humidity 59    
Precipitation  
Precipitation 0.23 in 0.16 in 1.72 in (2016)
Month to date precipitation 6.45 3.69  
Year to date precipitation 37.62 37.43  
Sea Level Pressure  
Sea Level Pressure 29.98 in    
Wind  
Wind Speed 5 mph ()    
Max Wind Speed 16 mph    
Max Gust Speed 22 mph    
Visibility 9.4 miles    
Events Rain    
T = Trace of Precipitation, MM = Missing Value Source: Averaged Metar Reports

Daily Weather History Graph

Daily Weather History Graph

Search for Another Location

Airport or City:

Astronomy

Oct. 22, 2019 Rise Set
Actual Time 7:14 AM EDT 6:00 PM EDT
Civil Twilight 6:45 AM EDT 6:29 PM EDT
Nautical Twilight 6:12 AM EDT 7:01 PM EDT
Astronomical Twilight 5:40 AM EDT 7:34 PM EDT
Moon 12:10 AM EDT (10/22) 3:17 PM EDT (10/22)
Length of Visible Light 11h 43m
Length of Day
10h 46m
Last Quarter, 37% of the Moon is Illuminated
Oct 22
Last Quarter
Oct 27
New
Nov 4
First Quarter
Nov 12
Full
Nov 19
Last Quarter

Hourly Weather History & Observations

Time (EDT) Temp. Windchill Dew Point Humidity Pressure Visibility Wind Dir Wind Speed Gust Speed Precip Events Conditions
12:54 AM 44.1 °F 41.5 °F 41.0 °F 89% 30.10 in 10.0 mi NE 4.6 mph - N/A   Clear
1:54 AM 44.1 °F - 42.1 °F 93% 30.10 in 10.0 mi Calm Calm - N/A   Clear
2:54 AM 45.0 °F - 42.1 °F 90% 30.08 in 10.0 mi Calm Calm - N/A   Clear
3:54 AM 43.0 °F 40.3 °F 41.0 °F 93% 30.06 in 10.0 mi East 4.6 mph - N/A   Clear
4:54 AM 46.9 °F - 42.1 °F 83% 30.05 in 10.0 mi NE 5.8 mph - N/A   Clear
5:54 AM 48.9 °F - 42.1 °F 77% 30.07 in 10.0 mi East 4.6 mph - N/A   Clear
6:54 AM 48.9 °F - 39.9 °F 71% 30.05 in 10.0 mi East 4.6 mph - N/A   Clear
7:54 AM 48.9 °F - 36.0 °F 61% 30.08 in 10.0 mi Variable 3.5 mph - N/A   Clear
8:54 AM 51.1 °F - 37.0 °F 59% 30.06 in 10.0 mi ENE 9.2 mph - N/A   Mostly Cloudy
9:54 AM 52.0 °F - 37.9 °F 59% 30.06 in 10.0 mi ESE 9.2 mph - N/A   Overcast
10:54 AM 53.1 °F - 39.9 °F 61% 30.06 in 10.0 mi SE 9.2 mph - N/A   Overcast
11:54 AM 54.0 °F - 42.1 °F 64% 30.04 in 10.0 mi ESE 10.4 mph - N/A   Mostly Cloudy
12:43 PM 55.9 °F - 45.0 °F 67% 30.03 in 10.0 mi ESE 12.7 mph 20.7 mph N/A   Mostly Cloudy
12:54 PM 55.0 °F - 46.0 °F 72% 30.00 in 10.0 mi ESE 11.5 mph 20.7 mph N/A   Mostly Cloudy
1:50 PM 55.4 °F - 46.4 °F 72% 30.01 in 10.0 mi ESE 12.7 mph - N/A   Overcast
1:54 PM 55.0 °F - 46.9 °F 74% 29.98 in 10.0 mi East 10.4 mph - N/A   Overcast
2:54 PM 53.1 °F - 46.9 °F 80% 29.95 in 10.0 mi East 8.1 mph - N/A   Overcast
3:54 PM 52.0 °F - 46.9 °F 83% 29.95 in 10.0 mi ESE 5.8 mph - N/A   Overcast
4:19 PM 52.0 °F - 46.9 °F 83% 29.93 in 10.0 mi ESE 10.4 mph - N/A   Overcast
4:45 PM 52.0 °F - 46.9 °F 83% 29.94 in 10.0 mi ESE 8.1 mph - N/A   Overcast
4:54 PM 52.0 °F - 46.9 °F 83% 29.91 in 9.0 mi East 9.2 mph - N/A   Overcast
5:30 PM 52.0 °F - 48.0 °F 86% 29.93 in 5.0 mi East 5.8 mph - N/A   Overcast
5:54 PM 52.0 °F - 48.9 °F 89% 29.91 in 4.0 mi ESE 4.6 mph - N/A   Overcast
6:54 PM 52.0 °F - 48.9 °F 89% 29.90 in 10.0 mi Variable 6.9 mph - N/A   Overcast
7:14 PM 52.0 °F - 48.9 °F 89% 29.93 in 9.0 mi East 3.5 mph - N/A   Overcast
7:24 PM 52.0 °F - 48.9 °F 89% 29.92 in 9.0 mi Variable 5.8 mph - N/A   Overcast
7:54 PM 53.1 °F - 48.9 °F 86% 29.89 in 10.0 mi ENE 5.8 mph - N/A   Overcast
8:54 PM 53.1 °F - 48.9 °F 86% 29.87 in 10.0 mi North - - 0.02 in Rain Light Rain
9:54 PM 52.0 °F - 48.9 °F 89% 29.85 in 7.0 mi Calm Calm - 0.09 in Rain Light Rain
10:54 PM 52.0 °F - 48.9 °F 89% 29.83 in 7.0 mi NE 4.6 mph - 0.06 in Rain Light Rain
11:54 PM 52.0 °F - 48.9 °F 89% 29.79 in 10.0 mi East 5.8 mph - 0.06 in Rain Light Rain